Santorini Island, Greece

5:14 PM EEST on June 24, 2017 (GMT +0300)
Santorini

Weather History for LGSR - May, 2013

Change the Weather History Date:

Wednesday, May 1, 2013

  Actual Average Record
Temperature  
Mean Temperature 70 °F -  
Max Temperature 77 °F 68 °F 78 °F (1999)
Min Temperature 64 °F 57 °F 53 °F (2006)
Cooling Degree Days 6    
Growing Degree Days 20 (Base 50)    
Moisture  
Dew Point 55 °F    
Average Humidity 58    
Maximum Humidity 73    
Minimum Humidity 44    
Precipitation  
Precipitation 0.00 in - - ()
Sea Level Pressure  
Sea Level Pressure 29.98 in    
Wind  
Wind Speed 8 mph ()    
Max Wind Speed 16 mph    
Max Gust Speed -    
Averages and records for this station are not official NWS values.
T = Trace of Precipitation, MM = Missing Value Source: Averaged Metar Reports

Daily Weather History Graph

Daily Weather History Graph

Search for Another Location

Airport or City:

Trip Planner

Search our weather history database for the weather conditions in past years. The results will help you decide how hot, cold, wet, or windy it might be!

Date:

Astronomy

May. 01, 2013 Rise Set
Actual Time 6:24 AM EEST 8:05 PM EEST
Civil Twilight 5:57 AM EEST 8:33 PM EEST
Nautical Twilight 5:24 AM EEST 9:07 PM EEST
Astronomical Twilight 4:48 AM EEST 9:42 PM EEST
Moon 1:00 AM EEST (5/1) 11:41 AM EEST (5/1)
Length of Visible Light 14h 36m
Length of Day
13h 41m
Waning Gibbous, 62% of the Moon is Illuminated
May 1
Waning Gibbous
May 2
Last Quarter
May 10
New
May 18
First Quarter
May 25
Full

Hourly Weather History & Observations

Time (EEST) Temp. Dew Point Humidity Pressure Visibility Wind Dir Wind Speed Gust Speed Precip Events Conditions
12:20 AM 64.4 °F 51.8 °F 64% 30.04 in - North - - N/A   Unknown
12:50 AM 68.0 °F 53.6 °F 60% 30.01 in - North - - N/A   Unknown
1:20 AM 68.0 °F 51.8 °F 56% 30.01 in - North - - N/A   Unknown
1:50 AM 66.2 °F 51.8 °F 60% 30.01 in - North - - N/A   Unknown
2:20 AM 68.0 °F 53.6 °F 60% 30.01 in - North - - N/A   Unknown
3:20 AM 66.2 °F 53.6 °F 64% 30.01 in - North - - N/A Rain Light Rain
3:50 AM 66.2 °F 53.6 °F 64% 29.98 in - North - - N/A   Unknown
4:20 AM 66.2 °F 51.8 °F 60% 29.98 in - North - - N/A   Unknown
4:50 AM 66.2 °F 53.6 °F 64% 29.98 in - North - - N/A   Unknown
5:20 AM 64.4 °F 55.4 °F 73% 29.98 in - North - - N/A   Unknown
5:50 AM 64.4 °F 53.6 °F 68% 29.98 in - North - - N/A   Unknown
6:20 AM 64.4 °F 53.6 °F 68% 29.98 in - North - - N/A   Unknown
6:50 AM 66.2 °F 53.6 °F 64% 29.98 in - SW 10.4 mph - N/A   Clear
7:20 AM 68.0 °F 55.4 °F 64% 29.98 in - SW 9.2 mph - N/A   Clear
7:50 AM 71.6 °F 55.4 °F 57% 29.98 in - WSW 8.1 mph - N/A   Clear
8:20 AM 71.6 °F 55.4 °F 57% 30.01 in - West 8.1 mph - N/A   Clear
8:50 AM 73.4 °F 53.6 °F 50% 30.01 in - West 8.1 mph - N/A   Clear
9:20 AM 71.6 °F 55.4 °F 57% 30.01 in - West 9.2 mph - N/A   Clear
9:50 AM 71.6 °F 57.2 °F 60% 30.01 in - West 6.9 mph - N/A   Clear
10:20 AM 75.2 °F 53.6 °F 47% 30.01 in - West 16.1 mph - N/A   Clear
10:50 AM 75.2 °F 55.4 °F 50% 30.01 in - WNW 9.2 mph - N/A   Clear
11:20 AM 73.4 °F 57.2 °F 57% 30.01 in - North 5.8 mph - N/A   Clear
11:50 AM 75.2 °F 57.2 °F 53% 30.01 in - West 9.2 mph - N/A   Clear
12:20 PM 75.2 °F 57.2 °F 53% 30.01 in - North 9.2 mph - N/A   Clear
12:50 PM 77.0 °F 53.6 °F 44% 29.98 in - North 10.4 mph - N/A   Clear
1:20 PM 73.4 °F 57.2 °F 57% 29.98 in - North 10.4 mph - N/A   Clear
1:50 PM 75.2 °F 55.4 °F 50% 29.98 in - North 9.2 mph - N/A   Clear
2:20 PM 75.2 °F 55.4 °F 50% 29.98 in - North 9.2 mph - N/A   Clear
2:50 PM 75.2 °F 55.4 °F 50% 29.98 in - North 11.5 mph - N/A   Clear
3:20 PM 75.2 °F 55.4 °F 50% 29.98 in - North 11.5 mph - N/A   Clear
3:50 PM 75.2 °F 55.4 °F 50% 29.98 in - North 11.5 mph - N/A   Clear
4:20 PM 75.2 °F 55.4 °F 50% 29.98 in - North 11.5 mph - N/A   Clear
4:50 PM 71.6 °F 57.2 °F 60% 29.95 in - North 11.5 mph - N/A   Clear
5:20 PM 71.6 °F 57.2 °F 60% 29.95 in - North 11.5 mph - N/A   Clear
5:50 PM 71.6 °F 55.4 °F 57% 29.95 in - North 9.2 mph - N/A   Clear
6:20 PM 71.6 °F 55.4 °F 57% 29.95 in - North 9.2 mph - N/A   Clear
6:50 PM 69.8 °F 57.2 °F 64% 29.95 in - NNW 5.8 mph - N/A   Clear
7:20 PM 69.8 °F 55.4 °F 60% 29.92 in - NNW 5.8 mph - N/A   Clear
7:50 PM 69.8 °F 55.4 °F 60% 29.92 in - NNW 4.6 mph - N/A   Clear
8:20 PM 68.0 °F 55.4 °F 64% 29.92 in - Calm Calm - N/A   Clear
8:50 PM 69.8 °F 53.6 °F 56% 29.92 in - West 4.6 mph - N/A   Clear
9:20 PM 68.0 °F 53.6 °F 60% 29.95 in - North - - N/A   Unknown
9:50 PM 69.8 °F 51.8 °F 53% 29.95 in - North - - N/A   Unknown
10:20 PM 68.0 °F 53.6 °F 60% 29.95 in - North - - N/A   Unknown
10:50 PM 66.2 °F 51.8 °F 60% 29.92 in - North - - N/A   Unknown
11:20 PM 69.8 °F 50.0 °F 49% 29.92 in - North - - N/A   Unknown
11:50 PM 68.0 °F 51.8 °F 56% 29.92 in - North - - N/A   Unknown